Weather History for Hailey, ID

Change the Weather History Date:

Thursday, June 20, 2013

  Actual Average Record
Temperature  
Mean Temperature 46 °F -  
Max Temperature 60 °F 75 °F 89 °F (1999)
Min Temperature 32 °F 46 °F 32 °F (2013)
Degree Days  
Heating Degree Days 19    
Moisture  
Dew Point 32 °F    
Average Humidity 70    
Maximum Humidity 100    
Minimum Humidity 25    
Precipitation  
Precipitation 0.00 in - - ()
Sea Level Pressure  
Sea Level Pressure 30.04 in    
Wind  
Wind Speed 5 mph (WNW)    
Max Wind Speed 13 mph    
Max Gust Speed 17 mph    
Visibility 10 miles    
Events      
Averages and records for this station are not official NWS values.
T = Trace of Precipitation, MM = Missing Value Source: NWS Daily Summary

Daily Weather History Graph

Daily Weather History Graph

Search for Another Location

Airport:

Trip Planner

Search our weather history database for the weather conditions in past years. The results will help you decide how hot, cold, wet, or windy it might be!

Date:

Astronomy

Jun. 20, 2013 Rise Set
Actual Time 5:56 AM MDT 9:21 PM MDT
Civil Twilight 5:20 AM MDT 9:57 PM MDT
Nautical Twilight 4:33 AM MDT 10:44 PM MDT
Astronomical Twilight 3:34 AM MDT 11:43 PM MDT
Moon 6:25 PM MDT (6/20) 3:29 AM MDT (6/20)
Length of Visible Light 16h 37m
Length of Day
15h 25m
Waxing Gibbous, 89% of the Moon is Illuminated
Jun 20
Waxing Gibbous
Jun 23
Full
Jun 29
Last Quarter
Jul 8
New
Jul 15
First Quarter

Hourly Weather History & Observations

Time (MDT) Temp. Windchill Dew Point Humidity Pressure Visibility Wind Dir Wind Speed Gust Speed Precip Events Conditions
12:15 AM 41.0 °F - 35.6 °F 81% 30.03 in 10.0 mi Calm Calm - N/A   Clear
12:35 AM 41.0 °F 36.4 °F 35.6 °F 81% 30.03 in 10.0 mi ESE 6.9 mph - N/A   Clear
12:55 AM 39.2 °F 35.9 °F 33.8 °F 81% 30.04 in 10.0 mi South 4.6 mph - N/A   Clear
1:15 AM 37.4 °F 34.9 °F 33.8 °F 87% 30.03 in 10.0 mi South 3.5 mph - N/A   Clear
1:35 AM 37.4 °F 34.9 °F 33.8 °F 87% 30.03 in 10.0 mi SW 3.5 mph - N/A   Clear
1:55 AM 37.4 °F 33.8 °F 35.6 °F 93% 30.03 in 10.0 mi SE 4.6 mph - N/A   Clear
2:15 AM 35.6 °F - 33.8 °F 93% 30.03 in 10.0 mi Calm Calm - N/A   Clear
2:35 AM 37.4 °F - 33.8 °F 87% 30.05 in 10.0 mi Calm Calm - N/A   Clear
2:55 AM 35.6 °F 32.8 °F 32.0 °F 87% 30.04 in 10.0 mi NW 3.5 mph - N/A   Clear
3:15 AM 35.6 °F 31.7 °F 32.0 °F 87% 30.03 in 10.0 mi NW 4.6 mph - N/A   Clear
3:35 AM 35.6 °F 30.7 °F 32.0 °F 87% 30.03 in 10.0 mi North 5.8 mph - N/A   Clear
3:55 AM 35.6 °F 28.0 °F 32.0 °F 87% 30.03 in 10.0 mi NW 10.4 mph - N/A   Clear
4:15 AM 33.8 °F 26.4 °F 32.0 °F 93% 30.03 in 10.0 mi WNW 9.2 mph - N/A   Clear
4:35 AM 33.8 °F 26.4 °F 32.0 °F 93% 30.03 in 10.0 mi NNW 9.2 mph - N/A   Clear
4:55 AM 33.8 °F 28.6 °F 32.0 °F 93% 30.03 in 10.0 mi WNW 5.8 mph - N/A   Clear
5:15 AM 33.8 °F 29.6 °F 32.0 °F 93% 30.03 in 10.0 mi NNW 4.6 mph - N/A   Clear
5:35 AM 33.8 °F 28.6 °F 32.0 °F 93% 30.04 in 10.0 mi WNW 5.8 mph - N/A   Clear
5:55 AM 33.8 °F 28.6 °F 30.2 °F 87% 30.04 in 10.0 mi NW 5.8 mph - N/A   Clear
6:15 AM 33.8 °F 30.8 °F 30.2 °F 87% 30.04 in 10.0 mi WNW 3.5 mph - N/A   Clear
6:35 AM 32.0 °F - 30.2 °F 93% 30.05 in 10.0 mi Calm Calm - N/A   Clear
6:47 AM 33.8 °F - 30.2 °F 87% 30.06 in 10.0 mi Calm Calm - N/A   Partly Cloudy
6:55 AM 32.0 °F 28.7 °F 32.0 °F 100% 30.06 in 10.0 mi NNW 3.5 mph - N/A   Clear
7:47 AM 35.6 °F 30.7 °F 30.2 °F 81% 30.06 in 10.0 mi NW 5.8 mph - N/A   Partly Cloudy
8:47 AM 41.0 °F 38.0 °F 33.8 °F 76% 30.06 in 10.0 mi SE 4.6 mph - N/A   Partly Cloudy
9:47 AM 46.4 °F 41.9 °F 35.6 °F 66% 30.07 in 10.0 mi ESE 9.2 mph - N/A   Scattered Clouds
10:47 AM 50.0 °F - 37.4 °F 62% 30.08 in 10.0 mi East 10.4 mph 17.3 mph N/A   Mostly Cloudy
11:47 AM 51.8 °F - 35.6 °F 54% 30.08 in 10.0 mi ESE 12.7 mph - N/A   Mostly Cloudy
12:47 PM 53.6 °F - 35.6 °F 51% 30.07 in 10.0 mi ESE 11.5 mph - N/A   Mostly Cloudy
1:47 PM 53.6 °F - 35.6 °F 51% 30.07 in 10.0 mi ESE 11.5 mph - N/A   Mostly Cloudy
2:47 PM 55.4 °F - 33.8 °F 44% 30.06 in 10.0 mi SSE 10.4 mph - N/A   Mostly Cloudy
3:55 PM 57.2 °F - 35.6 °F 44% 30.05 in 10.0 mi SSE 10.4 mph - N/A   Scattered Clouds
4:55 PM 59.0 °F - 30.2 °F 34% 30.04 in 10.0 mi ESE 5.8 mph - N/A   Scattered Clouds
5:47 PM 60.8 °F - 30.2 °F 31% 30.04 in 10.0 mi ESE 8.1 mph - N/A   Scattered Clouds
6:50 PM 60.8 °F - 24.8 °F 25% 30.04 in 10.0 mi West 5.8 mph - N/A   Scattered Clouds
7:50 PM 59.0 °F - 28.4 °F 31% 30.02 in 10.0 mi Calm Calm - N/A   Scattered Clouds
8:47 PM 53.6 °F - 30.2 °F 41% 30.03 in 10.0 mi Calm Calm - N/A   Scattered Clouds
9:47 PM 53.6 °F - 24.8 °F 33% 30.03 in 10.0 mi Calm Calm - N/A   Scattered Clouds
10:47 PM 51.8 °F - 28.4 °F 41% 30.04 in 10.0 mi West 6.9 mph - N/A   Scattered Clouds
11:15 PM 48.2 °F - 28.4 °F 46% 30.05 in 10.0 mi NW 9.2 mph - N/A   Clear
11:35 PM 46.4 °F 42.4 °F 28.4 °F 50% 30.05 in 10.0 mi NW 8.1 mph - N/A   Scattered Clouds
11:55 PM 46.4 °F 42.9 °F 28.4 °F 50% 30.05 in 10.0 mi NW 6.9 mph - N/A   Scattered Clouds